Omaha Offutt, NE

11:08 PM CDT on March 25, 2017 (GMT -0500)
Offutt Air Force Base

Weather History for KOFF - March, 2013

Change the Weather History Date:

Friday, March 29, 2013

  Actual Average Record
Temperature  
Mean Temperature 50 °F -  
Max Temperature 69 °F 54 °F 78 °F (1998)
Min Temperature 30 °F 34 °F 19 °F (2014)
Degree Days  
Heating Degree Days 16    
Moisture  
Dew Point 32 °F    
Average Humidity 55    
Maximum Humidity 99    
Minimum Humidity 23    
Precipitation  
Precipitation 0.00 in - - ()
Sea Level Pressure  
Sea Level Pressure 30.16 in    
Wind  
Wind Speed 6 mph (SE)    
Max Wind Speed 15 mph    
Max Gust Speed 20 mph    
Visibility 10 miles    
Events      
Averages and records for this station are not official NWS values.
T = Trace of Precipitation, MM = Missing Value Source: NWS Daily Summary

Daily Weather History Graph

Daily Weather History Graph

Search for Another Location

Airport or City:

Trip Planner

Search our weather history database for the weather conditions in past years. The results will help you decide how hot, cold, wet, or windy it might be!

Date:

Astronomy

Mar. 29, 2013 Rise Set
Actual Time 7:11 AM CDT 7:45 PM CDT
Civil Twilight 6:43 AM CDT 8:13 PM CDT
Nautical Twilight 6:11 AM CDT 8:46 PM CDT
Astronomical Twilight 5:37 AM CDT 9:19 PM CDT
Moon 10:49 PM CDT (3/29) 8:19 AM CDT (3/29)
Length of Visible Light 13h 29m
Length of Day
12h 34m
Waning Gibbous, 93% of the Moon is Illuminated
Mar 29
Waning Gibbous
Apr 2
Last Quarter
Apr 10
New
Apr 18
First Quarter
Apr 25
Full

Hourly Weather History & Observations

Time (CDT) Temp. Windchill Dew Point Humidity Pressure Visibility Wind Dir Wind Speed Gust Speed Precip Events Conditions
12:55 AM 32.5 °F - 30.7 °F 93% 30.22 in 10.0 mi Calm Calm - N/A   Clear
1:55 AM 30.0 °F - 29.5 °F 98% 30.21 in 10.0 mi Calm Calm - N/A   Clear
2:55 AM 37.4 °F - 30.4 °F 76% 30.20 in 10.0 mi Calm Calm - N/A   Clear
3:55 AM 33.8 °F 27.7 °F 27.3 °F 77% 30.19 in 10.0 mi NE 6.9 mph - N/A   Clear
4:55 AM 37.4 °F 33.8 °F 31.1 °F 78% 30.19 in 10.0 mi ENE 4.6 mph - N/A   Clear
5:55 AM 30.7 °F 26.0 °F 30.6 °F 99% 30.20 in 10.0 mi East 4.6 mph - N/A   Clear
6:55 AM 33.8 °F - 29.3 °F 84% 30.22 in 10.0 mi Calm Calm - N/A   Clear
7:55 AM 33.8 °F 27.7 °F 26.8 °F 75% 30.24 in 3.0 mi East 6.9 mph - N/A   Clear
8:55 AM 41.0 °F 36.4 °F 38.8 °F 92% 30.25 in 6.0 mi ESE 6.9 mph - N/A   Clear
9:55 AM 47.5 °F - 37.8 °F 69% 30.25 in 8.0 mi SE 8.1 mph - N/A   Clear
10:55 AM 54.1 °F - 38.3 °F 55% 30.25 in 10.0 mi SE 5.8 mph - N/A   Clear
11:55 AM 59.9 °F - 36.5 °F 42% 30.22 in 10.0 mi ESE 15.0 mph - N/A   Clear
12:55 PM 63.5 °F - 34.9 °F 34% 30.19 in 10.0 mi SSE 12.7 mph 19.6 mph N/A   Clear
1:55 PM 65.5 °F - 33.1 °F 30% 30.16 in 10.0 mi South 15.0 mph - N/A   Clear
2:55 PM 67.3 °F - 32.2 °F 27% 30.14 in 10.0 mi SSE 10.4 mph 18.4 mph N/A   Clear
3:55 PM 68.9 °F - 28.9 °F 23% 30.11 in 10.0 mi SE 12.7 mph - N/A   Clear
4:55 PM 69.4 °F - 29.7 °F 23% 30.09 in 10.0 mi SSE 12.7 mph - N/A   Clear
5:55 PM 68.2 °F - 29.3 °F 23% 30.09 in 10.0 mi SSE 12.7 mph - N/A   Clear
6:55 PM 64.8 °F - 30.4 °F 28% 30.08 in 10.0 mi SE 11.5 mph - N/A   Clear
7:55 PM 59.5 °F - 31.1 °F 34% 30.08 in 10.0 mi SE 6.9 mph - N/A   Clear
8:55 PM 55.4 °F - 31.6 °F 40% 30.07 in 10.0 mi ESE 9.2 mph - N/A   Mostly Cloudy
9:55 PM 55.4 °F - 31.6 °F 40% 30.07 in 10.0 mi ESE 9.2 mph - N/A   Mostly Cloudy
10:55 PM 56.7 °F - 31.5 °F 38% 30.04 in 10.0 mi SE 10.4 mph - N/A   Scattered Clouds
11:55 PM 56.3 °F - 32.0 °F 40% 30.07 in 10.0 mi SE 9.2 mph - N/A   Mostly Cloudy